Location: Hamilton
(43.2500°N, 79.8330°W)
Time: 09:08:06
(UTC-05:00)

Amateur Radio Satellites - All Passes

Search period start: 06 March 2015 08:38
Search period end: 07 March 2015 08:38
Location: Hamilton, 43.2500°N, 79.8330°W

Satellite Date Start Highest point End Downlink Frequencies (MHz)
Time Altitude Azimuth
O/OREOS (USA 219) 06 Mar 08:40:27 08:44:57 60° 109° (ESE) 08:49:29 437.305
TIGRISAT 06 Mar 08:41:05 08:42:02 11° 62° (ENE) 08:43:14 435.000
AAUSAT CUBESAT 2 06 Mar 08:44:36 08:47:52 22° 93° (E) 08:51:14 437.432
GONETS M04 06 Mar 08:47:51 08:56:38 77° 79° (E) 09:05:27
COMPASS 1 06 Mar 08:50:03 08:53:43 29° 95° (E) 08:57:27 437.405
ANTELSAT 06 Mar 08:55:10 08:57:42 16° 65° (ENE) 09:00:23 437.575/2403.000
HO-68 06 Mar 09:00:13 09:07:18 58° 101° (E) 09:14:24 435.675
SO-50 06 Mar 09:05:04 09:09:52 47° 50° (NE) 09:14:38 436.795
Oscar 11 06 Mar 09:06:04 09:09:06 19° 91° (E) 09:12:16 145.826/435.025
BUGSAT 1 06 Mar 09:15:46 09:16:42 11° 62° (ENE) 09:17:52 437.445
RS-15 06 Mar 09:18:30 09:29:09 44° 249° (WSW) 09:40:01 29.354- 29.394
SEEDS 06 Mar 09:22:56 09:27:12 83° 102° (ESE) 09:31:28 437.485
QB50P1 06 Mar 09:24:06 09:26:54 18° 65° (ENE) 09:29:49 145.935-145.965
DELFI C3 06 Mar 09:28:43 09:32:06 25° 94° (E) 09:35:32 145.870
QB50P2 06 Mar 09:29:04 09:32:09 20° 66° (ENE) 09:35:20 145.880/145.840
CANX-2 06 Mar 09:32:37 09:36:50 59° 286° (WNW) 09:41:01 2200.000
DX 1 06 Mar 09:37:17 09:40:17 18° 92° (E) 09:43:24 434.975-435.025
CUBEBUG 2 06 Mar 09:38:56 09:42:35 30° 96° (E) 09:46:19 437.445
DUCHIFAT 1 06 Mar 09:40:09 09:43:36 25° 68° (ENE) 09:47:08 145.980
ISS 06 Mar 09:44:22 09:47:08 25° 343° (NNW) 09:49:54 145.825
CINEMA 3 06 Mar 09:44:32 09:48:41 64° 101° (E) 09:52:48 145.822/145.860
GOMX 1 06 Mar 09:50:14 09:54:18 39° 289° (WNW) 09:58:11 467.674
CUTE 1.7 + AOD 2 06 Mar 09:50:47 09:54:48 41° 288° (WNW) 09:58:49 437.475
UNISAT 6 06 Mar 09:50:52 09:55:09 58° 74° (ENE) 09:59:24 437.425
FUNcube-1 06 Mar 09:58:25 10:02:11 33° 96° (E) 10:05:59 145.935
AISAT 06 Mar 09:59:29 10:01:38 14° 89° (E) 10:03:59 437.250
UKube-1 06 Mar 10:01:06 10:04:58 31° 96° (E) 10:08:50 .
ZACube-1 06 Mar 10:01:06 10:04:57 36° 97° (E) 10:08:50 437.345
POPSAT HIP 1 06 Mar 10:02:53 10:06:56 43° 72° (ENE) 10:11:01 437.405
POLYITAN 1 06 Mar 10:04:23 10:08:28 45° 72° (ENE) 10:12:35 437.675
DOVE 4 06 Mar 10:06:12 10:10:09 38° 289° (WNW) 10:13:59 437.250
BRITE-PL 06 Mar 10:06:28 10:09:46 20° 295° (WNW) 10:12:50 437.365/2234.400
VELOX 1 06 Mar 10:06:40 10:09:19 16° 90° (E) 10:12:08 145.980
TIGRISAT 06 Mar 10:13:54 10:18:16 81° 257° (WSW) 10:22:35 435.000
AAUSAT CUBESAT 2 06 Mar 10:19:50 10:23:36 32° 290° (WNW) 10:27:21 437.432
O/OREOS (USA 219) 06 Mar 10:21:42 10:24:50 17° 309° (NW) 10:27:51 437.305
50 SAT 06 Mar 10:23:50 10:26:57 22° 94° (E) 10:30:08 437.505
NANOSAT C BR1 06 Mar 10:24:12 10:28:28 75° 75° (ENE) 10:32:44 145.865
DANDE 06 Mar 10:24:27 10:26:41 24° 74° (ENE) 10:28:59 436.750
COMPASS 1 06 Mar 10:25:51 10:29:22 25° 291° (WNW) 10:32:48 437.405
UWE-3 06 Mar 10:29:08 10:33:18 88° 285° (WNW) 10:37:30 435.000/436.395/437.385
ANTELSAT 06 Mar 10:29:55 10:34:11 52° 260° (W) 10:38:24 437.575/2403.000
CUSAT 1 06 Mar 10:30:16 10:32:48 47° 78° (ENE) 10:35:30 437.405
ESTCUBE 1 06 Mar 10:37:07 10:40:02 17° 90° (E) 10:43:07 437.505/2401.250
Oscar 11 06 Mar 10:41:25 10:45:31 41° 289° (WNW) 10:49:34 145.826/435.025
GONETS M04 06 Mar 10:46:05 10:52:40 23° 279° (W) 10:58:56
SO-50 06 Mar 10:46:09 10:50:13 25° 247° (WSW) 10:54:08 436.795
BUGSAT 1 06 Mar 10:47:21 10:51:38 82° 257° (WSW) 10:55:56 437.445
HO-68 06 Mar 10:48:34 10:54:42 31° 300° (WNW) 11:00:42 435.675
QB50P1 06 Mar 10:58:22 11:02:30 46° 261° (W) 11:06:37 145.935-145.965
SEEDS 06 Mar 11:01:44 11:02:27 10° 298° (WNW) 11:02:57 437.485
DELFI C3 06 Mar 11:03:46 11:07:17 27° 291° (WNW) 11:10:45 145.870
QB50P2 06 Mar 11:03:48 11:07:50 39° 262° (W) 11:11:52 145.880/145.840
HUMSAT D 06 Mar 11:08:27 11:12:34 75° 285° (WNW) 11:16:42 437.325/437.525
DX 1 06 Mar 11:12:38 11:16:47 42° 289° (WNW) 11:20:53 434.975-435.025
DUCHIFAT 1 06 Mar 11:15:32 11:19:21 31° 264° (W) 11:23:08 145.980
CUBEBUG 2 06 Mar 11:15:51 11:19:13 24° 292° (WNW) 11:22:31 437.445
ISS 06 Mar 11:21:58 11:24:19 18° 3° (N) 11:26:41 145.825
CINEMA 3 06 Mar 11:23:41 11:25:27 12° 297° (WNW) 11:27:02 145.822/145.860
CUBEBUG 1 06 Mar 11:23:47 11:28:03 46° 99° (E) 11:32:16 437.445
UNISAT 6 06 Mar 11:30:13 11:32:24 13° 271° (W) 11:34:22 437.425
TISAT 1 06 Mar 11:31:16 11:32:54 12° 88° (E) 11:34:45 437.305
Oscar 19 06 Mar 11:33:27 11:36:26 16° 61° (ENE) 11:39:36 437.125/150
AISAT 06 Mar 11:34:20 11:38:44 59° 287° (WNW) 11:43:04 437.250
FUNcube-1 06 Mar 11:35:09 11:38:24 22° 292° (WNW) 11:41:35 145.935
UKube-1 06 Mar 11:37:25 11:41:02 25° 293° (WNW) 11:44:34 .
ZACube-1 06 Mar 11:38:02 11:41:09 20° 293° (WNW) 11:44:12 437.345
POPSAT HIP 1 06 Mar 11:40:07 11:43:04 17° 269° (W) 11:45:54 437.405
SPROUT 06 Mar 11:40:48 11:43:46 18° 91° (E) 11:46:49 437.525
POLYITAN 1 06 Mar 11:41:52 11:44:42 17° 269° (W) 11:47:22 437.675
VELOX 1 06 Mar 11:41:56 11:46:16 51° 288° (WNW) 11:50:33 145.980
50 SAT 06 Mar 11:58:32 12:01:59 28° 290° (WNW) 12:05:22 437.505
NANOSAT C BR1 06 Mar 12:04:33 12:04:56 10° 273° (W) 12:05:03 145.865
ESTCUBE 1 06 Mar 12:12:51 12:17:16 49° 288° (WNW) 12:21:38 437.505/2401.250
ISS 06 Mar 12:58:22 13:01:24 36° 23° (NNE) 13:04:27 145.825
SWISSCUBE 06 Mar 13:00:35 13:04:10 21° 92° (E) 13:07:52 437.505
CUBEBUG 1 06 Mar 13:01:03 13:04:07 18° 295° (WNW) 13:07:02 437.445
TISAT 1 06 Mar 13:05:01 13:09:12 60° 286° (WNW) 13:13:20 437.305
BEESAT 06 Mar 13:08:18 13:12:04 23° 93° (E) 13:15:56 436.000
Oscar 19 06 Mar 13:10:08 13:15:16 72° 257° (WSW) 13:20:25 437.125/150
Gurwin Techsat 1B 06 Mar 13:14:28 13:19:11 34° 68° (ENE) 13:23:59 435.225
SPROUT 06 Mar 13:16:02 13:20:05 41° 289° (WNW) 13:24:05 437.525
ITAMSAT 1 06 Mar 13:17:45 13:22:44 48° 70° (ENE) 13:27:48 435.822/435.867
AO-7 06 Mar 13:23:20 13:28:35 19° 49° (NE) 13:34:07 29.400- 29.500
ITUPSAT 1 06 Mar 13:37:46 13:42:23 44° 98° (E) 13:47:00 437.325
KKS-1 06 Mar 13:51:28 13:52:45 11° 87° (E) 13:54:18 437.445
YUBILEINY 06 Mar 13:52:46 13:53:42 10° 73° (ENE) 13:55:25 435.215
JAS-2 06 Mar 14:18:28 14:21:54 17° 55° (NE) 14:25:48 435.910
ISS 06 Mar 14:34:51 14:37:49 34° 221° (SW) 14:40:48 145.825
SWISSCUBE 06 Mar 14:37:42 14:42:18 44° 290° (WNW) 14:46:50 437.505
BEESAT 06 Mar 14:45:36 14:50:07 40° 290° (WNW) 14:54:34 436.000
HORYU 2 06 Mar 14:52:51 14:57:16 77° 75° (ENE) 15:01:43 437.375
Gurwin Techsat 1B 06 Mar 14:54:25 14:59:11 32° 265° (W) 15:03:55 435.225
ITAMSAT 1 06 Mar 14:58:26 15:02:33 22° 268° (W) 15:06:33 435.822/435.867
AO-7 06 Mar 15:11:53 15:20:11 76° 69° (ENE) 15:28:31 29.400- 29.500
ITUPSAT 1 06 Mar 15:16:16 15:20:03 23° 295° (WNW) 15:23:42 437.325
STARS 06 Mar 15:22:06 15:26:30 70° 102° (ESE) 15:30:51 437.465
KKS-1 06 Mar 15:25:34 15:30:01 71° 285° (WNW) 15:34:25 437.445
BEESAT 3 06 Mar 15:32:12 15:34:57 18° 112° (ESE) 15:37:51 437.485
YUBILEINY 06 Mar 15:40:20 15:48:50 61° 92° (E) 15:57:28 435.215
JAS-2 06 Mar 16:00:24 16:06:03 87° 256° (WSW) 16:12:30 435.910
BEESAT 2 06 Mar 16:01:33 16:05:10 31° 116° (ESE) 16:08:54 435.950
VERMONT LUNAR 06 Mar 16:11:15 16:14:14 27° 159° (SSE) 16:17:15 437.305
AIST 2 06 Mar 16:23:28 16:26:37 21° 113° (ESE) 16:29:53 435.215
AUBIESAT-1 06 Mar 16:28:03 16:31:43 26° 100° (E) 16:35:37 437.475
M-CUBED/EXP-1 PRIME 06 Mar 16:29:38 16:33:30 29° 101° (ESE) 16:37:35 437.505
HORYU 2 06 Mar 16:33:50 16:34:36 10° 273° (W) 16:35:04 437.375
AIST 1 06 Mar 16:45:47 16:48:10 15° 67° (ENE) 16:50:45
PHONESAT 2.4 06 Mar 16:45:54 16:48:57 26° 158° (SSE) 16:52:03 2401.200-2431.200
STARS 06 Mar 17:00:23 17:02:28 13° 298° (WNW) 17:04:22 437.465
AO-7 06 Mar 17:07:14 17:13:53 25° 269° (W) 17:20:13 29.400- 29.500
MOZHAYETS 4 06 Mar 17:07:25 17:12:04 73° 102° (ESE) 17:16:43
BEESAT 3 06 Mar 17:08:46 17:12:44 47° 309° (NW) 17:16:46 437.485
O/OREOS (USA 219) 06 Mar 17:11:08 17:14:08 17° 51° (NE) 17:17:15 437.305
Cubesat XI-IV 06 Mar 17:17:25 17:22:35 51° 71° (ENE) 17:27:49 437.490
CUTE-I 06 Mar 17:24:59 17:30:14 58° 72° (ENE) 17:35:33 437.470
YUBILEINY 06 Mar 17:38:36 17:46:17 32° 294° (WNW) 17:53:52 435.215
BEESAT 2 06 Mar 17:39:41 17:43:21 29° 314° (NW) 17:47:02 435.950
CUBESAT XI-V 06 Mar 17:43:09 17:45:33 14° 88° (E) 17:48:08 437.345
VERMONT LUNAR 06 Mar 17:48:24 17:51:48 53° 176° (S) 17:55:14 437.305
HO-68 06 Mar 17:49:45 17:50:18 10° 46° (NE) 17:51:16 435.675
JAS-2 06 Mar 17:50:03 17:52:31 12° 279° (W) 17:54:40 435.910
STRAND 1 06 Mar 17:56:10 17:57:46 12° 86° (E) 17:59:42 437.568
AIST 2 06 Mar 18:00:52 18:04:59 44° 310° (NW) 18:09:07 435.215
AUBIESAT-1 06 Mar 18:02:36 18:06:36 35° 294° (WNW) 18:10:47 437.475
M-CUBED/EXP-1 PRIME 06 Mar 18:04:31 18:08:23 31° 295° (WNW) 18:12:24 437.505
PRISM 06 Mar 18:12:54 18:16:23 25° 94° (E) 18:19:57 437.425
AIST 1 06 Mar 18:21:59 18:26:18 54° 265° (W) 18:30:34
PHONESAT 2.4 06 Mar 18:23:30 18:27:04 53° 174° (S) 18:30:38 2401.200-2431.200
MOZHAYETS 4 06 Mar 18:46:24 18:48:48 14° 298° (WNW) 18:50:58
O/OREOS (USA 219) 06 Mar 18:49:30 18:54:02 60° 250° (WSW) 18:58:31 437.305
PCSat 06 Mar 18:52:07 18:55:50 20° 107° (ESE) 18:59:45 145.827
CANX-2 06 Mar 18:53:55 18:55:14 11° 62° (ENE) 18:56:44 2200.000
Cubesat XI-IV 06 Mar 18:58:50 19:03:02 22° 268° (W) 19:07:06 437.490
CUTE-I 06 Mar 19:06:55 19:10:47 19° 270° (W) 19:14:29 437.470
CUTE 1.7 + AOD 2 06 Mar 19:10:33 19:13:02 16° 65° (ENE) 19:15:40 437.475
CUBESAT XI-V 06 Mar 19:18:50 19:23:31 63° 286° (WNW) 19:28:08 437.345
GOMX 1 06 Mar 19:21:13 19:25:34 28° 68° (ENE) 19:29:49 467.674
VERMONT LUNAR 06 Mar 19:26:09 19:29:29 42° 192° (SSW) 19:32:47 437.305
HO-68 06 Mar 19:29:44 19:36:29 48° 66° (ENE) 19:43:20 435.675
STRAND 1 06 Mar 19:32:36 19:37:47 86° 287° (WNW) 19:42:56 437.568
DOVE 4 06 Mar 19:35:20 19:39:24 26° 68° (ENE) 19:43:21 437.250
AAUSAT CUBESAT 2 06 Mar 19:37:21 19:40:09 18° 66° (ENE) 19:43:04 437.432
BRITE-PL 06 Mar 19:37:50 19:43:16 57° 74° (ENE) 19:48:27 437.365/2234.400
COMPASS 1 06 Mar 19:42:57 19:46:14 24° 68° (ENE) 19:49:37 437.405
PRISM 06 Mar 19:48:11 19:51:55 29° 291° (WNW) 19:55:33 437.425
GONETS M04 06 Mar 19:57:55 20:02:41 17° 78° (ENE) 20:07:58
PHONESAT 2.4 06 Mar 20:01:48 20:05:18 45° 191° (SSW) 20:08:47 2401.200-2431.200
Oscar 11 06 Mar 20:02:29 20:05:18 18° 65° (ENE) 20:08:15 145.826/435.025
SEEDS 06 Mar 20:16:02 20:20:10 66° 75° (ENE) 20:24:20 437.485
DELFI C3 06 Mar 20:18:23 20:21:12 19° 67° (ENE) 20:24:08 145.870
CANX-2 06 Mar 20:26:27 20:30:39 73° 258° (WSW) 20:34:53 2200.000
PCSat 06 Mar 20:33:27 20:38:49 62° 304° (WNW) 20:44:14 145.827
DX 1 06 Mar 20:34:11 20:37:19 20° 65° (ENE) 20:40:34 434.975-435.025
CUBEBUG 2 06 Mar 20:38:21 20:42:13 31° 70° (ENE) 20:46:03 437.445
CUTE 1.7 + AOD 2 06 Mar 20:44:32 20:48:37 50° 261° (W) 20:52:45 437.475
CINEMA 3 06 Mar 20:46:57 20:51:37 69° 75° (ENE) 20:56:05 145.822/145.860
FUNcube-1 06 Mar 20:55:29 20:59:15 31° 70° (ENE) 21:03:01 145.935
UKube-1 06 Mar 20:57:09 21:00:58 31° 69° (ENE) 21:04:52 .
ZACube-1 06 Mar 20:58:18 21:02:11 34° 71° (ENE) 21:06:02 437.345
GOMX 1 06 Mar 20:58:38 21:03:35 39° 263° (W) 21:08:16 467.674
AISAT 06 Mar 20:58:42 21:01:20 16° 63° (ENE) 21:04:08 437.250
VERMONT LUNAR 06 Mar 21:04:41 21:06:53 16° 208° (SSW) 21:09:02 437.305
VELOX 1 06 Mar 21:05:40 21:08:37 18° 64° (ENE) 21:11:43 145.980
AAUSAT CUBESAT 2 06 Mar 21:11:38 21:15:33 40° 262° (W) 21:19:29 437.432
50 SAT 06 Mar 21:12:16 21:14:48 17° 66° (ENE) 21:17:28 437.505
DOVE 4 06 Mar 21:12:19 21:17:02 38° 263° (W) 21:21:30 437.250
STRAND 1 06 Mar 21:14:04 21:16:17 12° 302° (WNW) 21:18:16 437.568
BRITE-PL 06 Mar 21:17:59 21:22:07 20° 269° (W) 21:25:56 437.365/2234.400
HO-68 06 Mar 21:17:59 21:24:26 35° 265° (W) 21:30:50 435.675
COMPASS 1 06 Mar 21:18:09 21:21:51 30° 265° (W) 21:25:32 437.405
UWE-3 06 Mar 21:27:10 21:31:34 85° 75° (ENE) 21:35:51 435.000/436.395/437.385
RS-15 06 Mar 21:32:47 21:41:29 30° 106° (ESE) 21:50:38 29.354- 29.394
Oscar 11 06 Mar 21:37:03 21:41:11 45° 261° (W) 21:45:21 145.826/435.025
ESTCUBE 1 06 Mar 21:38:07 21:41:16 19° 65° (ENE) 21:44:32 437.505/2401.250
PHONESAT 2.4 06 Mar 21:40:42 21:43:18 18° 207° (SSW) 21:45:50 2401.200-2431.200
UNISAT 6 06 Mar 21:44:18 21:45:12 11° 87° (E) 21:46:24 437.425
GONETS M04 06 Mar 21:49:40 21:58:21 85° 97° (E) 22:07:05
DELFI C3 06 Mar 21:52:27 21:56:12 36° 263° (W) 21:59:58 145.870
SEEDS 06 Mar 21:55:17 21:56:32 11° 273° (W) 21:57:34 437.485
HUMSAT D 06 Mar 22:01:15 22:05:26 87° 79° (ENE) 22:09:36 437.325/437.525
TIGRISAT 06 Mar 22:05:24 22:08:21 18° 92° (E) 22:11:28 435.000
DX 1 06 Mar 22:09:08 22:13:19 42° 261° (W) 22:17:31 434.975-435.025
NANOSAT C BR1 06 Mar 22:10:53 22:11:55 11° 87° (E) 22:13:11 145.865
CUBEBUG 2 06 Mar 22:15:15 22:18:58 25° 266° (W) 22:22:33 437.445
PCSat 06 Mar 22:20:37 22:23:27 14° 326° (NW) 22:26:07 145.827
CUBEBUG 1 06 Mar 22:20:53 22:25:06 45° 71° (ENE) 22:29:23 437.445
ANTELSAT 06 Mar 22:21:01 22:24:43 27° 95° (E) 22:28:31 437.575/2403.000
TISAT 1 06 Mar 22:25:22 22:27:01 12° 62° (ENE) 22:28:51 437.305
CINEMA 3 06 Mar 22:27:14 22:29:19 12° 272° (W) 22:31:08 145.822/145.860
BUGSAT 1 06 Mar 22:30:36 22:32:32 13° 89° (E) 22:34:38 437.445
FUNcube-1 06 Mar 22:32:06 22:35:39 24° 266° (W) 22:39:05 145.935
AISAT 06 Mar 22:33:06 22:37:33 58° 259° (W) 22:42:00 437.250
UKube-1 06 Mar 22:33:32 22:37:10 25° 266° (W) 22:40:46 .
ZACube-1 06 Mar 22:35:14 22:38:40 22° 267° (W) 22:41:57 437.345
SPROUT 06 Mar 22:36:32 22:39:22 18° 65° (ENE) 22:42:21 437.525
VELOX 1 06 Mar 22:40:31 22:44:52 50° 260° (W) 22:49:15 145.980
QB50P1 06 Mar 22:42:57 22:46:28 25° 94° (E) 22:50:01 145.935-145.965
50 SAT 06 Mar 22:45:48 22:49:33 39° 262° (W) 22:53:17 437.505
QB50P2 06 Mar 22:48:19 22:52:02 30° 95° (E) 22:55:45 145.880/145.840
DUCHIFAT 1 06 Mar 22:59:08 23:03:03 37° 97° (E) 23:06:58 145.980
ESTCUBE 1 06 Mar 23:13:28 23:17:51 47° 262° (W) 23:22:15 437.505/2401.250
UNISAT 6 06 Mar 23:18:17 23:22:35 71° 285° (WNW) 23:26:57 437.425
POPSAT HIP 1 06 Mar 23:22:46 23:27:00 71° 102° (ESE) 23:31:12 437.405
POLYITAN 1 06 Mar 23:24:38 23:28:52 76° 102° (ESE) 23:33:04 437.675
SO-50 06 Mar 23:24:41 23:25:22 10° 108° (ESE) 23:26:19 436.795
DANDE 06 Mar 23:35:53 23:42:02 60° 99° (E) 23:46:36 436.750
CUSAT 1 06 Mar 23:38:50 23:44:33 78° 99° (E) 23:48:47 437.405
TIGRISAT 06 Mar 23:41:17 23:45:21 41° 288° (WNW) 23:49:26 435.000
RS-15 06 Mar 23:42:00 23:52:55 76° 307° (NW) 00:04:05 29.354- 29.394
NANOSAT C BR1 06 Mar 23:44:08 23:48:20 67° 285° (WNW) 23:52:29 145.865
BEESAT 3 06 Mar 23:49:34 23:52:36 20° 41° (NE) 23:55:41 437.485
GONETS M04 06 Mar 23:49:58 23:56:31 22° 300° (WNW) 00:02:45
ANTELSAT 06 Mar 23:57:48 00:01:31 28° 291° (WNW) 00:05:12 437.575/2403.000
TISAT 1 06 Mar 23:58:03 00:02:19 71° 258° (WSW) 00:06:36 437.305
CUBEBUG 1 06 Mar 23:58:36 00:01:45 18° 269° (W) 00:04:46 437.445
BUGSAT 1 07 Mar 00:04:23 00:08:27 52° 287° (WNW) 00:12:25 437.445
SWISSCUBE 07 Mar 00:08:15 00:12:15 28° 67° (ENE) 00:16:21 437.505
SPROUT 07 Mar 00:10:59 00:15:10 46° 261° (W) 00:19:22 437.525
BEESAT 07 Mar 00:15:51 00:19:58 30° 68° (ENE) 00:24:10 436.000
QB50P1 07 Mar 00:18:42 00:22:22 29° 291° (WNW) 00:25:57 145.935-145.965
BEESAT 2 07 Mar 00:19:59 00:23:41 30° 46° (NE) 00:27:21 435.950
QB50P2 07 Mar 00:24:21 00:27:52 25° 292° (WNW) 00:31:16 145.880/145.840
DUCHIFAT 1 07 Mar 00:35:32 00:38:41 20° 294° (WNW) 00:41:43 145.980
AIST 2 07 Mar 00:43:38 00:47:03 23° 42° (NE) 00:50:28 435.215
ITUPSAT 1 07 Mar 00:45:34 00:50:15 57° 72° (ENE) 00:54:59 437.325
KKS-1 07 Mar 00:50:48 00:52:54 14° 62° (ENE) 00:55:12 437.445
SO-50 07 Mar 01:00:35 01:05:12 88° 123° (ESE) 01:10:01 436.795
POPSAT HIP 1 07 Mar 01:00:44 01:02:23 12° 298° (WNW) 01:03:51 437.405
POLYITAN 1 07 Mar 01:02:54 01:04:16 11° 298° (WNW) 01:05:25 437.675
Oscar 19 07 Mar 01:20:48 01:25:32 37° 97° (E) 01:30:17 437.125/150
DANDE 07 Mar 01:21:42 01:25:26 17° 289° (WNW) 01:28:25 436.750
CUSAT 1 07 Mar 01:26:08 01:27:32 11° 291° (WNW) 01:28:35 437.405
BEESAT 3 07 Mar 01:26:59 01:31:02 54° 240° (WSW) 01:35:00 437.485
ITAMSAT 1 07 Mar 01:30:54 01:33:50 15° 88° (E) 01:36:59 435.822/435.867
Gurwin Techsat 1B 07 Mar 01:31:31 01:33:16 12° 86° (E) 01:35:22 435.225
SWISSCUBE 07 Mar 01:45:40 01:50:01 34° 264° (W) 01:54:23 437.505
YUBILEINY 07 Mar 01:49:25 01:57:01 32° 66° (ENE) 02:04:45 435.215
BEESAT 07 Mar 01:53:33 01:57:48 31° 265° (W) 02:02:02 436.000
RS-15 07 Mar 01:58:07 02:07:32 31° 337° (NNW) 02:17:04 29.354- 29.394
BEESAT 2 07 Mar 01:58:09 02:01:50 30° 244° (WSW) 02:05:25 435.950
STARS 07 Mar 02:19:58 02:24:21 70° 74° (ENE) 02:28:46 437.465
AIST 2 07 Mar 02:21:47 02:25:53 46° 242° (WSW) 02:29:55 435.215
KKS-1 07 Mar 02:24:36 02:29:03 69° 258° (WSW) 02:33:32 437.445
ITUPSAT 1 07 Mar 02:25:30 02:28:35 16° 270° (W) 02:31:30 437.325
SO-50 07 Mar 02:43:17 02:46:29 17° 325° (NW) 02:49:40 436.795
HORYU 2 07 Mar 02:44:49 02:47:00 14° 89° (E) 02:49:25 437.375
Oscar 19 07 Mar 03:00:24 03:04:48 29° 294° (WNW) 03:09:08 437.125/150
ITAMSAT 1 07 Mar 03:08:44 03:13:56 69° 288° (WNW) 03:19:06 435.822/435.867
Gurwin Techsat 1B 07 Mar 03:08:45 03:14:06 88° 291° (WNW) 03:19:26 435.225
JAS-2 07 Mar 03:09:08 03:13:27 16° 84° (E) 03:18:18 435.910
AO-7 07 Mar 03:13:30 03:19:27 22° 90° (E) 03:25:42 29.400- 29.500
AUBIESAT-1 07 Mar 03:18:23 03:21:23 31° 65° (ENE) 03:24:35 437.475
M-CUBED/EXP-1 PRIME 07 Mar 03:20:26 03:23:33 37° 66° (ENE) 03:26:53 437.505
PCSat 07 Mar 03:37:32 03:41:52 24° 43° (NE) 03:46:16 145.827
YUBILEINY 07 Mar 03:45:48 03:54:30 61° 268° (W) 04:03:05 435.215
STARS 07 Mar 03:59:46 04:01:24 11° 272° (W) 04:02:47 437.465
MOZHAYETS 4 07 Mar 04:10:17 04:14:50 76° 75° (ENE) 04:19:26
RS-15 07 Mar 04:15:51 04:24:36 25° 11° (N) 04:33:44 29.354- 29.394
HORYU 2 07 Mar 04:19:44 04:24:08 59° 287° (WNW) 04:28:32 437.375
CUBESAT XI-V 07 Mar 04:47:45 04:50:41 17° 64° (ENE) 04:53:46 437.345
Gurwin Techsat 1B 07 Mar 04:50:48 04:53:23 13° 301° (WNW) 04:55:44 435.225
JAS-2 07 Mar 04:51:59 04:59:37 81° 103° (ESE) 05:07:31 435.910
ITAMSAT 1 07 Mar 04:52:05 04:52:35 10° 304° (NW) 04:52:47 435.822/435.867
AUBIESAT-1 07 Mar 04:54:17 04:56:29 16° 264° (W) 04:58:38 437.475
M-CUBED/EXP-1 PRIME 07 Mar 04:57:07 04:58:50 13° 265° (W) 05:00:28 437.505
PRISM 07 Mar 05:04:41 05:07:55 22° 67° (ENE) 05:11:14 437.425
AO-7 07 Mar 05:04:56 05:13:16 81° 290° (WNW) 05:21:33 29.400- 29.500
STRAND 1 07 Mar 05:12:08 05:15:51 21° 63° (ENE) 05:19:42 437.568
PCSat 07 Mar 05:20:23 05:25:46 62° 244° (WSW) 05:31:05 145.827
Cubesat XI-IV 07 Mar 05:34:39 05:38:14 18° 90° (E) 05:41:59 437.490
CUTE-I 07 Mar 05:41:53 05:45:50 21° 91° (E) 05:49:55 437.470
YUBILEINY 07 Mar 05:47:27 05:49:39 11° 287° (WNW) 05:51:06 435.215
MOZHAYETS 4 07 Mar 05:51:21 05:52:44 11° 274° (W) 05:53:51
CUBESAT XI-V 07 Mar 06:23:04 06:27:42 58° 260° (W) 06:32:24 437.345
RS-15 07 Mar 06:29:37 06:40:33 51° 42° (NE) 06:52:02 29.354- 29.394
JAS-2 07 Mar 06:38:07 06:44:00 25° 300° (WNW) 06:49:52 435.910
PRISM 07 Mar 06:39:28 06:43:15 33° 263° (W) 06:47:03 437.425
STRAND 1 07 Mar 06:49:39 06:54:43 54° 260° (W) 06:59:47 437.568
AIST 1 07 Mar 06:52:07 06:56:29 85° 96° (E) 07:00:55
AO-7 07 Mar 06:59:12 07:05:00 21° 310° (NW) 07:10:29 29.400- 29.500
Cubesat XI-IV 07 Mar 07:13:32 07:18:50 60° 288° (WNW) 07:24:05 437.490
ISS 07 Mar 07:14:36 07:17:36 37° 140° (SE) 07:20:37 145.825
CUTE-I 07 Mar 07:21:04 07:26:18 52° 289° (WNW) 07:31:27 437.470
O/OREOS (USA 219) 07 Mar 07:25:51 07:28:02 14° 100° (E) 07:30:28 437.305
BRITE-PL 07 Mar 07:44:04 07:46:06 13° 87° (E) 07:48:18 437.365/2234.400
SO-50 07 Mar 07:51:23 07:54:57 20° 37° (NE) 07:58:36 436.795
GONETS M04 07 Mar 07:58:43 08:06:59 45° 72° (ENE) 08:15:21
SEEDS 07 Mar 08:02:30 08:02:58 10° 87° (E) 08:03:43 437.485
CANX-2 07 Mar 08:11:45 08:14:38 18° 91° (E) 08:17:39 2200.000
CUTE 1.7 + AOD 2 07 Mar 08:29:07 08:32:38 25° 94° (E) 08:36:13 437.475
